CW9461 Weather Reports


time (UTC)temp
F
wind
direction
speed
knots
gust
knots
rain 1hr
in
rain 24hr
in
rain mn
in
humidity
%
barometer
mb
20260905144605 55 117 0.9 4.3 0.00 0.00 0.00 91 1005.1
20260905144104 55 112 0.9 2.6 0.00 0.00 0.00 91 1005.2
20260905143604 55 137 0.9 2.6 0.00 0.00 0.00 91 1005.4
20260905143105 54 124 0.9 2.6 0.00 0.00 0.00 91 1005.1
20260905142604 54 103 0.9 2.6 0.00 0.00 0.00 91 1005.1
20260905142104 54 122 0.9 2.6 0.00 0.00 0.00 91 1005.1
20260905141604 55 144 0.9 2.6 0.00 0.00 0.00 91 1005.1
20260905141105 55 128 0.9 4.3 0.00 0.00 0.00 91 1005.1
20260905140105 55 135 0.9 2.6 0.00 0.00 0.00 91 1005.1
20260905135604 55 157 0.9 2.6 0.00 0.00 0.00 91 1005.1
20260905135104 55 110 0.0 1.7 0.00 0.00 0.00 91 1004.7
20260905134104 55 112 0.0 1.7 0.00 0.00 0.00 91 1004.7
20260905133605 55 135 0.9 1.7 0.00 0.00 0.00 91 1004.9
20260905133104 55 112 0.9 1.7 0.00 0.00 0.00 91 1004.7
20260905132605 55 67 0.0 2.6 0.00 0.00 0.00 91 1004.7
20260905131605 55 123 0.9 2.6 0.00 0.00 0.00 91 1004.7
20260905131104 55 112 0.9 1.7 0.00 0.00 0.00 91 1004.7
20260905130604 55 108 1.7 4.3 0.00 0.00 0.00 90 1004.7
20260905130104 55 135 0.9 2.6 0.00 0.00 0.00 90 1004.7
20260905125604 55 147 0.9 1.7 0.00 0.00 0.00 90 1004.7
20260905124604 55 135 0.9 2.6 0.00 0.00 0.00 90 1004.7
20260905124104 55 135 1.7 4.3 0.00 0.00 0.00 89 1004.7
20260905123605 55 153 1.7 2.6 0.00 0.00 0.00 89 1004.7
20260905123104 55 113 0.9 1.7 0.00 0.00 0.00 89 1004.7
20260905122605 55 125 1.7 2.6 0.00 0.00 0.00 89 1004.7
20260905122105 55 157 1.7 2.6 0.00 0.00 0.00 89 1004.7
20260905121604 55 67 0.9 1.7 0.00 0.00 0.00 89 1004.7
20260905121104 55 157 0.0 2.6 0.00 0.00 0.00 89 1004.7
20260905115605 55 140 0.9 4.3 0.00 0.00 0.00 88 1004.7
20260905115104 55 157 0.9 4.3 0.00 0.00 0.00 88 1004.7
20260905114603 55 137 0.9 2.6 0.00 0.00 0.00 88 1004.7
20260905114104 55 155 1.7 2.6 0.00 0.00 0.00 88 1004.7
20260905113604 55 157 0.9 2.6 0.00 0.00 0.00 88 1004.7
20260905112604 55 135 0.9 2.6 0.00 0.00 0.00 88 1004.7
20260905112104 55 161 1.7 5.2 0.00 0.00 0.00 88 1004.7
20260905111104 55 135 0.9 2.6 0.00 0.00 0.00 87 1004.9
20260905110105 55 157 1.7 2.6 0.00 0.00 0.00 87 1004.9
20260905105604 55 124 0.9 4.3 0.00 0.00 0.00 87 1004.7
20260905105105 55 139 0.9 1.7 0.00 0.00 0.00 86 1004.7
20260905104604 55 151 0.9 1.7 0.00 0.00 0.00 86 1004.7
20260905103605 56 135 0.0 0.9 0.00 0.00 0.00 86 1004.7
20260905103104 56 135 0.0 1.7 0.00 0.00 0.00 86 1004.9
20260905102604 56 135 1.7 2.6 0.00 0.00 0.00 86 1005.1
20260905101604 56 132 0.9 2.6 0.00 0.00 0.00 85 1005.1
20260905101105 56 75 0.9 2.6 0.00 0.00 0.00 85 1005.1
20260905100604 56 90 0.9 2.6 0.00 0.00 0.00 85 1005.1
20260905100104 56 102 0.9 1.7 0.00 0.00 0.00 84 1005.1
20260905095604 56 133 0.9 1.7 0.00 0.00 0.00 84 1005.1
20260905095105 56 135 0.9 1.7 0.00 0.00 0.00 84 1005.1
20260905094603 57 135 0.0 1.7 0.00 0.00 0.00 84 1005.1
20260905094104 57 112 0.9 2.6 0.00 0.00 0.00 84 1005.1
20260905093604 57 135 0.9 1.7 0.00 0.00 0.00 84 1005.1
20260905092604 56 112 0.9 1.7 0.00 0.00 0.00 84 1005.1
20260905091604 56 90 0.0 0.9 0.00 0.00 0.00 83 1005.1
20260905091104 56 68 0.0 1.7 0.00 0.00 0.00 83 1005.1
20260905090104 56 112 0.0 1.7 0.00 0.00 0.00 82 1005.1
20260905085604 57 157 0.0 1.7 0.00 0.00 0.00 82 1005.4
20260905085104 57 112 0.0 0.9 0.00 0.00 0.00 82 1005.2
20260905084605 57 135 0.0 0.9 0.00 0.00 0.00 82 1005.4
20260905084103 57 137 0.9 1.7 0.00 0.00 0.00 81 1005.1
20260905082105 57 137 0.9 1.7 0.00 0.00 0.00 81 1005.1
20260905081604 57 137 0.9 1.7 0.00 0.00 0.00 81 1005.1
20260905081104 57 112 0.0 0.0 0.00 0.00 0.00 81 1005.2
20260905080604 57 112 0.0 1.7 0.00 0.00 0.00 81 1005.1
20260905080104 58 135 0.9 1.7 0.00 0.00 0.00 81 1005.1
20260905075604 58 135 0.9 1.7 0.00 0.00 0.00 81 1005.1
20260905074604 58 112 0.9 1.7 0.00 0.00 0.00 81 1005.1
20260905073604 57 135 0.9 1.7 0.00 0.00 0.00 82 1005.1
20260905073104 58 131 0.9 1.7 0.00 0.00 0.00 82 1005.1
20260905072603 58 84 0.0 1.7 0.00 0.00 0.00 82 1005.1
20260905072104 58 112 0.0 0.9 0.00 0.00 0.00 82 1005.1
20260905071603 58 96 0.0 1.7 0.00 0.00 0.00 82 1004.9
20260905071104 58 157 0.0 0.9 0.00 0.00 0.00 82 1005.1
20260905070604 58 157 0.0 0.9 0.00 0.00 0.00 83 1005.1
20260905070104 58 157 0.9 0.9 0.00 0.00 0.00 84 1005.1
20260905065104 58 112 0.0 0.9 0.00 0.00 0.00 85 1005.1
20260905064104 58 108 0.0 1.7 0.00 0.00 0.00 86 1004.9
20260905063604 58 135 0.0 2.6 0.00 0.00 0.00 87 1004.9
20260905063104 58 90 0.9 1.7 0.00 0.00 0.00 87 1004.9
20260905062606 58 90 0.0 2.6 0.00 0.00 0.00 87 1005.1
20260905062106 58 67 0.0 1.7 0.00 0.00 0.00 87 1005.1
20260905061605 58 157 0.0 1.7 0.00 0.00 0.00 86 1005.1
20260905061107 58 159 0.0 1.7 0.00 0.00 0.00 86 1005.1
20260905060606 58 180 0.9 2.6 0.00 0.00 0.00 86 1005.1
20260905055105 58 157 0.0 0.0 0.00 0.00 0.00 84 1005.1
20260905054106 58 190 0.0 0.9 0.00 0.00 0.00 83 1005.1
20260905053606 58 45 0.0 0.0 0.00 0.00 0.00 82 1005.1
20260905053106 58 45 0.0 1.7 0.00 0.00 0.00 82 1005.1
20260905052606 58 202 0.0 0.0 0.00 0.00 0.00 82 1005.1
20260905052105 59 202 0.0 0.0 0.00 0.00 0.00 81 1005.1
20260905051606 59 198 0.0 0.0 0.00 0.00 0.00 80 1005.1
20260905051106 59 161 0.0 0.9 0.00 0.00 0.00 79 1005.1
20260905050605 59 22 0.0 0.0 0.00 0.00 0.00 79 1005.1
20260905050107 60 12 0.0 1.7 0.00 0.00 0.00 78 1005.3
20260905045606 60 292 0.0 0.0 0.00 0.00 0.00 77 1005.3
20260905044606 61 292 0.0 0.0 0.00 0.00 0.00 77 1005.2
20260905044105 61 292 0.0 0.0 0.00 0.01 0.00 76 1005.4
20260905043606 61 247 1.7 5.2 0.00 0.02 0.00 76 1005.3
20260905043105 61 216 0.0 0.9 0.00 0.02 0.00 75 1005.1
20260905042606 61 337 0.0 4.3 0.00 0.03 0.00 74 1005.1
20260905042105 62 263 0.9 1.7 0.00 0.04 0.00 74 1005.1
20260905041605 62 292 0.0 0.0 0.00 0.05 0.00 73 1005.1
20260905040605 62 283 1.7 7.0 0.00 0.06 0.00 72 1005.1
20260905040107 63 236 1.7 7.0 0.00 0.07 0.00 72 1005.1
20260905035606 63 289 1.7 5.2 0.00 0.08 0.00 72 1005.1
20260905035107 63 253 2.6 6.1 0.00 0.09 0.00 72 1004.8
20260905034605 63 230 1.7 7.0 0.00 0.10 0.00 72 1005.0
20260905034106 63 219 4.3 7.8 0.00 0.10 0.00 72 1004.7
20260905033606 63 263 2.6 8.7 0.00 0.10 0.00 72 1004.7
20260905032605 64 290 1.7 5.2 0.00 0.10 0.00 71 1004.5
20260905032106 64 236 2.6 7.0 0.00 0.10 0.00 71 1004.4
20260905031107 64 267 2.6 7.0 0.00 0.10 0.00 71 1004.4
20260905030605 64 239 2.6 7.0 0.00 0.11 0.00 70 1004.4
20260905030107 64 237 2.6 7.0 0.00 0.11 0.00 70 1004.4
20260905025107 65 273 1.7 7.0 0.00 0.12 0.00 67 1004.1
20260905024606 65 240 4.3 7.8 0.00 0.13 0.00 66 1004.1
20260905024105 66 242 4.3 8.7 0.00 0.14 0.00 65 1004.1
20260905023607 66 249 4.3 10.4 0.00 0.14 0.00 64 1004.1
20260905023106 66 298 2.6 6.1 0.00 0.15 0.00 63 1004.1
20260905022606 67 251 3.5 8.7 0.00 0.16 0.00 61 1004.1
20260905022106 67 240 2.6 8.7 0.00 0.17 0.00 60 1004.1
20260905021605 68 257 2.6 7.0 0.00 0.17 0.00 59 1004.1
20260905021105 68 266 1.7 4.3 0.00 0.17 0.00 57 1004.0
20260905020605 69 261 3.5 8.7 0.00 0.17 0.00 56 1004.1
20260905020105 70 269 2.6 10.4 0.00 0.17 0.00 54 1004.1
20260905015605 70 280 2.6 7.0 0.00 0.17 0.00 53 1004.1
20260905015106 71 280 2.6 5.2 0.00 0.17 0.00 53 1004.1
20260905014605 72 265 2.6 8.7 0.00 0.17 0.00 51 1004.1
20260905014106 73 234 4.3 12.2 0.00 0.17 0.00 49 1004.1
20260905013605 74 288 1.7 2.6 0.00 0.17 0.00 49 1004.1
20260905012606 74 208 0.9 1.7 0.00 0.17 0.00 49 1004.1
20260905012105 74 179 1.7 2.6 0.00 0.17 0.00 49 1004.0
20260905011606 75 173 1.7 4.3 0.00 0.17 0.00 49 1003.8
20260905011105 75 223 1.7 4.3 0.00 0.17 0.00 49 1003.7
20260905010606 74 200 0.9 5.2 0.00 0.17 0.00 48 1003.7
20260905010106 74 138 0.9 6.1 0.00 0.17 0.00 48 1004.0
20260905005606 75 267 2.6 5.2 0.00 0.17 0.00 46 1003.7
20260905005106 76 250 1.7 6.1 0.00 0.17 0.00 46 1003.7
20260905004606 76 204 0.0 6.1 0.00 0.17 0.00 47 1003.6
20260905004106 75 162 1.7 5.2 0.00 0.17 0.00 48 1003.4
20260905003605 75 229 1.7 5.2 0.00 0.17 0.00 47 1003.5
20260905003106 75 235 3.5 7.0 0.00 0.17 0.00 46 1003.4
20260905002605 76 245 3.5 7.8 0.00 0.17 0.00 46 1003.4
20260905002106 76 210 0.9 5.2 0.00 0.17 0.00 46 1003.4
20260905001605 76 263 1.7 6.1 0.00 0.17 0.00 46 1003.4
20260905000606 76 175 0.9 5.2 0.00 0.17 0.00 46 1003.4
20260905000107 76 233 4.3 7.0 0.00 0.17 0.00 45 1003.4
20260904235605 76 287 3.5 5.2 0.00 0.17 0.00 45 1003.4
20260904235105 76 185 1.7 7.0 0.00 0.17 0.00 45 1003.4
20260904234605 76 272 2.6 7.8 0.00 0.17 0.00 45 1003.4
20260904234105 76 252 3.5 7.0 0.00 0.17 0.00 45 1003.7
20260904233605 76 263 2.6 6.1 0.00 0.17 0.00 45 1003.5
20260904233105 76 214 2.6 5.2 0.00 0.17 0.00 44 1003.6
20260904232605 76 219 4.3 7.0 0.00 0.17 0.00 42 1003.7
20260904232106 76 248 2.6 7.8 0.00 0.17 0.00 42 1003.7
20260904231605 76 238 3.5 7.8 0.00 0.17 0.00 42 1003.7
20260904230606 76 253 3.5 7.0 0.00 0.17 0.00 44 1003.7
20260904230105 76 284 3.5 8.7 0.00 0.17 0.00 44 1003.7
20260904225605 75 244 2.6 6.1 0.00 0.17 0.00 43 1003.7
20260904224105 75 221 4.3 7.0 0.00 0.17 0.00 44 1004.1
20260904223606 75 251 4.3 7.0 0.00 0.17 0.00 44 1004.1
20260904223105 74 215 5.2 11.3 0.00 0.17 0.00 44 1004.1
20260904222606 75 253 5.2 10.4 0.00 0.17 0.00 44 1004.1
20260904222106 75 230 4.3 11.3 0.00 0.17 0.00 44 1004.1
20260904220605 74 260 3.5 6.1 0.00 0.17 0.00 43 1004.1
20260904220105 75 248 3.5 11.3 0.00 0.17 0.00 43 1004.3
20260904215605 74 296 2.6 7.0 0.00 0.17 0.00 43 1004.1
20260904215106 74 259 2.6 7.0 0.00 0.17 0.00 43 1004.1
20260904214605 74 254 2.6 7.0 0.00 0.17 0.00 43 1004.1
20260904214106 74 267 2.6 7.0 0.00 0.17 0.00 43 1004.4
20260904213105 74 270 4.3 8.7 0.00 0.17 0.00 42 1004.3
20260904212605 74 246 4.3 7.8 0.00 0.17 0.00 44 1004.4
20260904212105 73 269 2.6 7.0 0.00 0.17 0.00 45 1004.4
20260904211605 73 269 3.5 6.1 0.00 0.17 0.00 46 1004.4
20260904210604 72 272 3.5 8.7 0.00 0.17 0.00 47 1004.4
20260904210106 72 280 5.2 11.3 0.00 0.17 0.00 47 1004.4
20260904205605 72 278 2.6 7.8 0.00 0.17 0.00 47 1004.4
20260904205106 72 263 4.3 7.0 0.00 0.17 0.00 47 1004.4
20260904204605 72 288 4.3 7.8 0.00 0.17 0.00 47 1004.4
20260904204106 72 276 3.5 7.0 0.00 0.17 0.00 47 1004.4
20260904203605 72 290 2.6 5.2 0.00 0.17 0.00 47 1004.4
20260904203106 72 290 2.6 7.0 0.00 0.17 0.00 48 1004.4
20260904201606 72 229 5.2 11.3 0.00 0.17 0.00 50 1004.4
20260904201105 71 248 2.6 7.0 0.00 0.17 0.00 50 1004.4
20260904200605 72 290 4.3 7.8 0.00 0.17 0.00 50 1004.4
20260904195605 71 259 2.6 7.8 0.00 0.17 0.00 52 1004.4
20260904195106 71 281 3.5 7.8 0.00 0.17 0.00 53 1004.4
20260904194605 71 257 2.6 7.8 0.00 0.17 0.00 53 1004.4
20260904194105 71 280 3.5 7.0 0.00 0.17 0.00 52 1004.5
20260904193606 71 274 2.6 7.0 0.00 0.17 0.00 54 1004.4
20260904193104 71 239 2.6 6.1 0.00 0.17 0.00 56 1004.7
20260904192604 70 242 2.6 6.1 0.00 0.17 0.00 58 1004.7
20260904192105 70 269 2.6 5.2 0.00 0.17 0.00 59 1004.7
20260904191605 69 268 2.6 7.0 0.00 0.17 0.00 59 1004.7
20260904191105 69 261 2.6 7.0 0.00 0.17 0.00 60 1004.7
20260904190604 69 255 2.6 7.0 0.00 0.17 0.00 62 1005.0
20260904190104 69 215 3.5 7.0 0.00 0.17 0.00 63 1004.8
20260904185606 69 219 2.6 7.8 0.00 0.17 0.00 63 1005.1
20260904185105 69 275 2.6 7.0 0.00 0.17 0.00 64 1005.1
20260904184605 68 275 3.5 7.8 0.00 0.17 0.00 65 1005.1
20260904184105 68 227 2.6 8.7 0.00 0.17 0.00 65 1005.1
20260904183605 68 233 2.6 6.1 0.00 0.17 0.00 66 1005.1
20260904183105 68 244 3.5 7.0 0.00 0.17 0.00 67 1005.1
20260904182605 67 285 1.7 6.1 0.00 0.17 0.00 68 1005.1
20260904182104 67 240 2.6 7.0 0.00 0.17 0.00 69 1005.1
20260904181605 67 317 1.7 4.3 0.00 0.17 0.00 70 1005.1
20260904181105 67 285 1.7 5.2 0.00 0.17 0.00 71 1005.1
20260904180605 67 266 1.7 5.2 0.00 0.17 0.00 72 1005.1
20260904180105 66 284 0.9 2.6 0.00 0.17 0.00 72 1005.1
20260904175605 66 225 4.3 7.0 0.00 0.17 0.00 73 1005.1
20260904175105 66 260 2.6 5.2 0.00 0.17 0.00 74 1005.1
20260904174605 66 276 1.7 5.2 0.00 0.17 0.00 75 1005.1
20260904174105 66 223 3.5 7.0 0.00 0.17 0.00 76 1005.1
20260904173605 65 295 1.7 5.2 0.00 0.17 0.00 77 1005.1
20260904173106 65 272 1.7 6.1 0.00 0.17 0.00 77 1005.1
20260904172605 64 296 1.7 5.2 0.00 0.17 0.00 78 1005.1
20260904172105 64 243 2.6 5.2 0.00 0.17 0.00 79 1005.1
20260904171604 64 272 1.7 5.2 0.00 0.17 0.00 80 1005.1
20260904171105 64 245 2.6 5.2 0.00 0.17 0.00 80 1005.0
20260904170604 64 237 3.5 7.0 0.00 0.17 0.00 80 1005.1
20260904170106 64 238 2.6 6.1 0.00 0.17 0.00 81 1005.1
20260904165604 63 272 2.6 5.2 0.00 0.17 0.00 82 1005.1
20260904165105 63 266 2.6 5.2 0.00 0.17 0.00 83 1005.1
20260904164105 63 286 1.7 6.1 0.00 0.17 0.00 84 1004.8
20260904163606 63 287 1.7 4.3 0.00 0.17 0.00 83 1004.7
20260904163104 63 227 2.6 6.1 0.00 0.17 0.00 83 1004.7
20260904162605 63 242 1.7 6.1 0.00 0.17 0.00 84 1004.7
20260904162104 63 239 1.7 2.6 0.00 0.17 0.00 85 1004.7
20260904161104 62 155 0.0 4.3 0.00 0.17 0.00 88 1004.5
20260904160604 62 202 0.9 4.3 0.00 0.17 0.00 89 1004.7
20260904160105 61 202 1.7 4.3 0.00 0.17 0.00 90 1004.4
20260904155105 61 198 0.9 1.7 0.00 0.17 0.00 92 1004.7
20260904154106 60 223 1.7 2.6 0.00 0.17 0.00 94 1004.7
20260904153605 59 135 0.0 1.7 0.00 0.17 0.00 95 1004.7
20260904153104 59 211 1.7 2.6 0.00 0.17 0.00 95 1004.4
20260904152605 59 228 0.0 2.6 0.00 0.17 0.00 95 1004.7
20260904152105 58 192 0.0 2.6 0.00 0.17 0.00 96 1004.5
20260904151604 58 161 0.0 2.6 0.00 0.17 0.00 96 1004.7
20260904151104 58 225 0.9 2.6 0.00 0.17 0.00 96 1004.4
20260904150605 58 249 0.0 4.3 0.00 0.17 0.00 96 1004.4
20260904150104 58 280 0.0 1.7 0.00 0.17 0.00 96 1004.4